Regional Weather Roundup
Issued by NWS

Home | Current Version | Previous Version | Text Only | Print | Product List | Glossary Off
Versions: 1 2 3 4 5 6 7 8 9 10 11 12 13 14 15 16 17 18 19 20 21 22 23 24 25 26 27 28 29 30 31 32 33 34 35 36 37 38 39 40 41 42 43 44 45 46 47 48 49 50

000
ASUS43 KMPX 192110
RWRMN
WEATHER ROUNDUP FOR MINNESOTA
NATIONAL WEATHER SERVICE TWIN CITIES/CHANHASSEN MN
400 PM CDT FRI SEP 19 2014


NOTE: "FAIR" INDICATES FEW OR NO CLOUDS BELOW 12,000 FEET WITH NO
SIGNIFICANT WEATHER AND/OR OBSTRUCTIONS TO VISIBILITY. N/A MEANS
CURRENT SKY AND/OR WEATHER CONDITIONS ARE NOT AVAILABLE.

MNZ060>063-068>070-192200-
   Twin Cities Metro

CITY           SKY/WX    TMP DP  RH WIND       PRES   REMARKS
TWIN CITIES    PTSUNNY   80  62  54 SW7       29.67F
ST PAUL        CLOUDY    77  63  61 S7        29.67F
CRYSTAL        PTSUNNY   74  62  66 CALM      29.67F
BLAINE         PTSUNNY   73  64  73 W5        29.69F
LAKEVILLE      PTSUNNY   79  63  57 S8G17     29.68F
EDEN PRAIRIE   PTSUNNY   76  64  66 NW5       29.66F
SOUTH ST PAUL  CLOUDY    79  61  54 S12G17    29.67F
LAKE ELMO      CLOUDY    77  63  61 S12       29.69F
$$
MNZ001>005-007-008-013>017-022>024-027-028-192200-
   Northwest Minnesota

CITY           SKY/WX    TMP DP  RH WIND       PRES   REMARKS
BEMIDJI        CLOUDY    65  61  86 SW9       29.58R
HALLOCK        MOSUNNY   75  64  69 SW8       29.49S
ROSEAU         PTSUNNY   72  64  78 SW13      29.52R
WARROAD        PTSUNNY   70  64  83 SW13      29.52R
THIEF RVR FALL MOSUNNY   72  64  78 SW17      29.54S
CROOKSTON      SUNNY     75  64  69 SW15      29.54S
FOSSTON        CLOUDY    70  63  78 S14       29.57S
DETROIT LAKES  MOSUNNY   70  63  78 S12       29.61F
MOORHEAD       SUNNY     77  66  69 SW10      29.57F
PARK RAPIDS    CLOUDY    65  62  90 SW13      29.61F
MAHNOMEN       FAIR      71  64  76 S14       29.57S
$$
MNZ006-009>011-018-025>026-192200-
   North Central Minnesota

CITY           SKY/WX    TMP DP  RH WIND       PRES   REMARKS
BAUDETTE       CLOUDY    67  63  87 SW10      29.53R
FLAG ISLAND    LGT RAIN  63  61  94 NW5       29.50R
INTL FALLS     CLOUDY    64  62  93 SW10      29.54F
WASKISH        CLOUDY    66  64  94 CALM      29.56R
BIG FORK       LGT RAIN  63  61  94 S12       29.56F
LONGVILLE      CLOUDY    63  61  94 S8        29.62F FOG
GRAND RAPIDS   CLOUDY    61  57  88 S15       29.60F
CRANE LAKE     CLOUDY    59  57  94 S6        29.59F FOG
ORR            LGT RAIN  61  57  88 S9        29.57F
COOK           LGT RAIN  61  57  88 S9        29.63R
WALKER         CLOUDY    64  61  90 S8G18     29.59F
$$
MNZ012-019>021-037-192200-
   Northeast Minnesota

CITY           SKY/WX    TMP DP  RH WIND       PRES   REMARKS
DULUTH         LGT RAIN  61  57  87 SW12      29.66F FOG
ELY            LGT RAIN  57  55  94 S8G17     29.61F
HIBBING        CLOUDY    62  58  86 SW12      29.65F
EVELETH        CLOUDY    59  59 100 SW8       29.66R FOG
DULUTH HARBOR  RAIN      64  61  88 SW10      29.67R
TWO HARBORS    DRIZZLE   61  55  82 SW9G17    29.65S
SILVER BAY     CLOUDY    59  59 100 SW8       29.64F
GRAND MARAIS     N/A     53  51  93 CALM      29.63F
G MARAIS ARPRT CLOUDY    54  50  87 SW6G16    29.65F FOG
$$
MNZ029>031-032-039>041-046>048-054>057-064-192200-
   West Central Minnesota

CITY           SKY/WX    TMP DP  RH WIND       PRES   REMARKS
FERGUS FALLS   PTSUNNY   72  63  73 SW8       29.61F
WHEATON        CLOUDY    72  63  73 S10       29.63S
MORRIS         CLOUDY    72  66  83 S5        29.65R
ALEXANDRIA     CLOUDY    65  64  97 S9        29.66F FOG
ELBOW LAKE     PTSUNNY   69  65  88 S10       29.63R
WADENA         CLOUDY    64  61  88 S10       29.63F
GLENWOOD       LGT RAIN  66  64  94 S8        29.64F
APPLETON       CLOUDY    75  64  69 SW3       29.64F
BENSON         LGT RAIN  72  64  78 SW8       29.65F
ORTONVILLE     LGT RAIN  73  64  73 CALM      29.62F
MADISON        CLOUDY    81  70  69 NW5       29.64F
WILLMAR        FAIR      73  63  68 S5        29.67F
$$
MNZ033>034-036-042>043-049>051-058-059-192200-
   Central Minnesota

CITY           SKY/WX    TMP DP  RH WIND       PRES   REMARKS
ST CLOUD       CLOUDY    68  62  81 S9        29.68S
SAUK CENTRE    CLOUDY    64  63  95 SE7       29.64F FOG
PAYNESVILLE    CLOUDY    64  62  91 E5        29.67F
AITKIN         CLOUDY    64  57  77 S9G16     29.64F
PINE RIVER     CLOUDY    63  61  94 S10       29.68R
BRAINERD       CLOUDY    60  60 100 S10       29.67F FOG
STAPLES        CLOUDY    63  61  94 S9        29.65R FOG
LONG PRAIRIE   RAIN      63  63 100 S7        29.66F
LITTLE FALLS   LGT RAIN  61  59  94 S6        29.67R
LITCHFIELD     PTSUNNY   73  66  78 SW3       29.68F
BUFFALO        CLOUDY    71  62  73 S3        29.69F
MAPLE LAKE     CLOUDY    70  64  81 S3        29.70S
$$
MNZ037-044-045-052-053-192200-
   East Central Minnesota

CITY           SKY/WX    TMP DP  RH WIND       PRES   REMARKS
PRINCETON      CLOUDY    70  63  78 S10         N/A
MORA           CLOUDY    64  59  82 S6        29.69F
CAMBRIDGE      CLOUDY    70  57  64 S3        29.68R
RUSH CITY      CLOUDY    67  60  77 SW3       29.69F
MOOSE LAKE     LGT RAIN  61  59  94 S6        29.64F
HINCKLEY       CLOUDY    64  61  88 CALM      29.69F
CLOQUET        LGT RAIN  61  57  88 S7        29.66F
MCGREGOR       CLOUDY    61  59  94 S10       29.66F
$$
MNZ071>073-080-081-089-090-097-098-192200-
   Southwest Minnesota

CITY           SKY/WX    TMP DP  RH WIND       PRES   REMARKS
MONTEVIDEO     PTSUNNY   79  66  65 W5        29.65S
GRANITE FALLS  PTSUNNY   81  66  61 SW10G16   29.66S
CANBY          PTSUNNY   79  67  67 W6        29.66S
MARSHALL       PTSUNNY   82  64  54 SW16G24   29.64F
REDWOOD FALLS  MOSUNNY   82  65  56 SW20      29.65F
OLIVIA         PTSUNNY   77  64  65 S6        29.65F
PIPESTONE      MOSUNNY   84  64  51 W18       29.70S
WINDOM         MOSUNNY   84  64  51 SW14G20   29.70S
WORTHINGTON    MOSUNNY   82  66  57 SW17G24   29.71S
JACKSON        MOSUNNY   82  63  51 SW18G29   29.71S
TRACY          MOSUNNY   83  66  56 SW15G25   29.67F
SLAYTON        MOSUNNY   83  63  51 SW17G26   29.70S
$$
MNZ065>067-074>077-082>085-091>093-192200-
   South Central Minnesota

CITY           SKY/WX    TMP DP  RH WIND       PRES   REMARKS
MANKATO        PTSUNNY   84  63  48 SW22G30   29.68S
NEW ULM        MOSUNNY   82  64  54 W10G18    29.67S
ST JAMES       SUNNY     86  63  45 S17G24    29.69
FAIRMONT       MOSUNNY   84  61  45 S22G31    29.69S
GLENCOE        PTSUNNY   77  62  60 SW6       29.66F
FARIBAULT      MOSUNNY   84  57  39 S15G24    29.71R
OWATONNA       SUNNY     81  63  54 S21G32    29.71R
WASECA         SUNNY     81  55  41 S23G35    29.72R
ALBERT LEA     SUNNY     81  63  54 S23G32    29.71F
$$
MNZ078>079-086>088-094>096-192200-
   Southeast Minnesota

CITY           SKY/WX    TMP DP  RH WIND       PRES   REMARKS
ROCHESTER      SUNNY     76  60  57 S25G39    29.73F
RED WING       MOSUNNY   81  59  47 S13G24    29.70S
STANTON        MOSUNNY   82  62  50 S13G25    29.68S
DODGE CENTER   SUNNY     77  63  61 S30G41    29.71F
WINONA         SUNNY     77  59  53 S12G20    29.75F
AUSTIN         SUNNY     75  63  64 S22G35    29.74F
PRESTON        SUNNY     74  64  71 S18G35    29.79F
$$
ABBREVIATIONS USED IN REMARKS
   TC - TEMPERATURES IN CELSIUS
  WCI - WIND CHILL INDEX
   HX - HEAT INDEX
  VSB - VISIBILITY
$$



USA.gov is the U.S. government's official web portal to all federal, state and local government web resources and services.